Hourly Weather Newport

Today, 9 August, Sunday

Time Temperature Precipitation Wind Pressure Humidity
00:00 +18°C° 0 mm 3 mps 763 mmHg 92%
01:00 +18°C° 0 mm 3 mps 763 mmHg 93%
02:00 +17°C° 0 mm 2 mps 763 mmHg 94%
03:00 +16°C° 0 mm 2 mps 763 mmHg 94%
04:00 +16°C° 0 mm 2 mps 763 mmHg 94%
05:00 +16°C° 0 mm 2 mps 763 mmHg 94%
06:00 +16°C° 0 mm 2 mps 763 mmHg 94%
07:00 +18°C° 0 mm 2 mps 763 mmHg 90%
08:00 +19°C° 0 mm 2 mps 763 mmHg 86%
09:00 +20°C° 0 mm 2 mps 763 mmHg 82%
10:00 +21°C° 0 mm 2 mps 763 mmHg 80%
11:00 +23°C° 0 mm 2 mps 762 mmHg 78%
12:00 +24°C° 0 mm 2 mps 762 mmHg 76%
13:00 +25°C° 0 mm 2 mps 762 mmHg 76%
14:00 +25°C° 0 mm 2 mps 762 mmHg 76%
15:00 +25°C° 0 mm 2 mps 762 mmHg 75%
16:00 +25°C° 0 mm 2 mps 761 mmHg 78%
17:00 +25°C° 0 mm 2 mps 761 mmHg 80%
18:00 +24°C° 0 mm 2 mps 761 mmHg 83%
19:00 +23°C° 0 mm 2 mps 761 mmHg 87%
20:00 +21°C° 0 mm 3 mps 761 mmHg 90%
21:00 +19°C° 0 mm 3 mps 761 mmHg 94%
22:00 +19°C° 0.3 mm 3 mps 760 mmHg 95%
23:00 +19°C° 0.3 mm 3 mps 760 mmHg 95%

Tomorrow, 10 August, Monday

Time Temperature Precipitation Wind Pressure Humidity
00:00 +19°C° 0.3 mm 2 mps 760 mmHg 96%
01:00 +19°C° 1.6 mm 2 mps 760 mmHg 96%
02:00 +19°C° 1.6 mm 2 mps 760 mmHg 96%
03:00 +19°C° 1.6 mm 2 mps 759 mmHg 97%
04:00 +19°C° 0.5 mm 2 mps 759 mmHg 97%
05:00 +19°C° 0.5 mm 2 mps 759 mmHg 96%
06:00 +19°C° 0.5 mm 2 mps 759 mmHg 96%
07:00 +20°C° 0.1 mm 2 mps 759 mmHg 94%
08:00 +22°C° 0.1 mm 1 mps 759 mmHg 92%
09:00 +22°C° 0.1 mm 1 mps 759 mmHg 89%
10:00 +23°C° 0.1 mm 1 mps 759 mmHg 88%
11:00 +24°C° 0.1 mm 1 mps 759 mmHg 86%
12:00 +24°C° 0.1 mm 1 mps 759 mmHg 84%
13:00 +24°C° 0 mm 2 mps 759 mmHg 85%
14:00 +24°C° 0 mm 2 mps 759 mmHg 86%
15:00 +24°C° 0 mm 2 mps 759 mmHg 86%
16:00 +24°C° 0 mm 2 mps 759 mmHg 87%
17:00 +24°C° 0 mm 2 mps 758 mmHg 88%
18:00 +24°C° 0 mm 2 mps 758 mmHg 89%
19:00 +23°C° 0 mm 2 mps 759 mmHg 91%
20:00 +21°C° 0 mm 2 mps 759 mmHg 94%
21:00 +20°C° 0 mm 2 mps 759 mmHg 96%
22:00 +19°C° 0 mm 2 mps 759 mmHg 96%
23:00 +19°C° 0 mm 2 mps 759 mmHg 96%

Day after tomorrow, 11 August, Tuesday

Time Temperature Precipitation Wind Pressure Humidity
00:00 +19°C° 0 mm 2 mps 759 mmHg 96%
01:00 +19°C° 0 mm 2 mps 759 mmHg 96%
02:00 +20°C° 0 mm 1 mps 759 mmHg 96%
03:00 +20°C° 0 mm 1 mps 759 mmHg 96%
04:00 +20°C° 0 mm 1 mps 759 mmHg 96%
05:00 +20°C° 0 mm 1 mps 759 mmHg 96%
06:00 +21°C° 0 mm 1 mps 759 mmHg 96%
07:00 +22°C° 0 mm 1 mps 759 mmHg 92%
08:00 +23°C° 0 mm 1 mps 759 mmHg 89%
09:00 +24°C° 0 mm 1 mps 759 mmHg 86%
10:00 +25°C° 0 mm 1 mps 759 mmHg 84%
11:00 +25°C° 0 mm 1 mps 759 mmHg 81%
12:00 +26°C° 0 mm 2 mps 759 mmHg 79%
13:00 +26°C° 0.1 mm 2 mps 759 mmHg 79%
14:00 +26°C° 0.1 mm 2 mps 759 mmHg 80%
15:00 +26°C° 0.1 mm 2 mps 759 mmHg 80%
16:00 +26°C° 0 mm 3 mps 759 mmHg 83%
17:00 +25°C° 0 mm 3 mps 759 mmHg 85%
18:00 +25°C° 0 mm 3 mps 758 mmHg 87%
19:00 +24°C° 0 mm 3 mps 759 mmHg 90%
20:00 +21°C° 0 mm 3 mps 759 mmHg 93%
21:00 +20°C° 0 mm 3 mps 759 mmHg 96%
22:00 +20°C° 0 mm 3 mps 759 mmHg 96%
23:00 +19°C° 0 mm 3 mps 759 mmHg 96%

12 August, Wednesday

Time Temperature Precipitation Wind Pressure Humidity
00:00 +19°C° 0 mm 2 mps 759 mmHg 96%
01:00 +19°C° 0 mm 2 mps 759 mmHg 96%
02:00 +19°C° 0 mm 2 mps 759 mmHg 96%
03:00 +19°C° 0 mm 2 mps 758 mmHg 97%
04:00 +19°C° 0 mm 2 mps 758 mmHg 96%
05:00 +19°C° 0 mm 2 mps 758 mmHg 96%
06:00 +20°C° 0 mm 2 mps 758 mmHg 96%
07:00 +20°C° 0 mm 2 mps 758 mmHg 94%
08:00 +21°C° 0 mm 2 mps 759 mmHg 92%
09:00 +23°C° 0 mm 2 mps 759 mmHg 90%
10:00 +23°C° 0 mm 2 mps 759 mmHg 88%
11:00 +24°C° 0 mm 2 mps 759 mmHg 87%
12:00 +24°C° 0 mm 2 mps 759 mmHg 85%
13:00 +24°C° 0.5 mm 2 mps 759 mmHg 88%
14:00 +23°C° 0.5 mm 2 mps 759 mmHg 90%
15:00 +23°C° 0.5 mm 2 mps 759 mmHg 93%
16:00 +21°C° 1.1 mm 3 mps 758 mmHg 94%
17:00 +20°C° 1.1 mm 3 mps 758 mmHg 95%
18:00 +20°C° 1.1 mm 3 mps 758 mmHg 96%
19:00 +19°C° 0.2 mm 3 mps 758 mmHg 96%
20:00 +19°C° 0.2 mm 3 mps 758 mmHg 96%
21:00 +19°C° 0.2 mm 3 mps 758 mmHg 96%
22:00 +18°C° 0.3 mm 4 mps 758 mmHg 96%
23:00 +18°C° 0.3 mm 4 mps 758 mmHg 96%

13 August, Thursday

Time Temperature Precipitation Wind Pressure Humidity
00:00 +18°C° 0.3 mm 4 mps 758 mmHg 95%
01:00 +18°C° 0.7 mm 4 mps 757 mmHg 94%
02:00 +17°C° 0.7 mm 5 mps 757 mmHg 94%
03:00 +16°C° 0.7 mm 5 mps 757 mmHg 93%
04:00 +16°C° 0.7 mm 5 mps 757 mmHg 92%
05:00 +16°C° 0.7 mm 5 mps 757 mmHg 91%
06:00 +15°C° 0.7 mm 5 mps 757 mmHg 90%
07:00 +16°C° 0.2 mm 6 mps 757 mmHg 89%
08:00 +16°C° 0.2 mm 7 mps 757 mmHg 87%
09:00 +16°C° 0.2 mm 7 mps 758 mmHg 85%
10:00 +16°C° 0 mm 7 mps 758 mmHg 82%
11:00 +17°C° 0 mm 6 mps 758 mmHg 80%
12:00 +17°C° 0 mm 6 mps 758 mmHg 77%
13:00 +17°C° 0 mm 6 mps 758 mmHg 75%
14:00 +17°C° 0 mm 6 mps 758 mmHg 73%
15:00 +17°C° 0 mm 6 mps 758 mmHg 71%
16:00 +17°C° 0 mm 6 mps 758 mmHg 74%
17:00 +17°C° 0 mm 6 mps 758 mmHg 77%
18:00 +16°C° 0 mm 5 mps 758 mmHg 79%
19:00 +15°C° 0 mm 5 mps 758 mmHg 84%
20:00 +14°C° 0 mm 5 mps 758 mmHg 89%
21:00 +13°C° 0 mm 4 mps 758 mmHg 94%
22:00 +13°C° 0 mm 5 mps 758 mmHg 94%
23:00 +13°C° 0 mm 5 mps 758 mmHg 95%

14 August, Friday

Time Temperature Precipitation Wind Pressure Humidity
00:00 +12°C° 0 mm 5 mps 758 mmHg 95%
01:00 +12°C° 0 mm 5 mps 758 mmHg 95%
02:00 +12°C° 0 mm 4 mps 758 mmHg 95%
03:00 +12°C° 0 mm 4 mps 758 mmHg 95%
04:00 +12°C° 0 mm 4 mps 758 mmHg 95%
05:00 +12°C° 0 mm 3 mps 758 mmHg 96%
06:00 +12°C° 0 mm 3 mps 758 mmHg 96%
07:00 +13°C° 0.1 mm 3 mps 758 mmHg 90%
08:00 +14°C° 0.1 mm 4 mps 758 mmHg 84%
09:00 +17°C° 0.1 mm 4 mps 758 mmHg 78%
10:00 +17°C° 0.1 mm 4 mps 758 mmHg 77%
11:00 +17°C° 0.1 mm 5 mps 758 mmHg 76%
12:00 +17°C° 0.1 mm 5 mps 758 mmHg 74%
13:00 +17°C° 0.2 mm 5 mps 757 mmHg 76%
14:00 +17°C° 0.2 mm 5 mps 757 mmHg 78%
15:00 +17°C° 0.2 mm 4 mps 757 mmHg 80%
16:00 +17°C° 0.1 mm 4 mps 757 mmHg 81%
17:00 +17°C° 0.1 mm 3 mps 756 mmHg 82%
18:00 +17°C° 0.1 mm 3 mps 756 mmHg 83%
19:00 +14°C° 0 mm 3 mps 757 mmHg 86%
20:00 +14°C° 0 mm 2 mps 757 mmHg 89%
21:00 +13°C° 0 mm 2 mps 757 mmHg 92%
22:00 +12°C° 0 mm 2 mps 757 mmHg 92%
23:00 +12°C° 0 mm 2 mps 757 mmHg 92%
Show more